Weather History for Lancaster, SC

Change the Weather History Date:

Monday, January 21, 2013

  Actual Average (KUZA) Record (KUZA)
Temperature  
Mean Temperature 44 °F -  
Max Temperature 60 °F 50 °F 73 °F (1959)
Min Temperature 28 °F 29 °F -4 °F (1985)
Degree Days  
Heating Degree Days 21    
Moisture  
Dew Point 29 °F    
Average Humidity 65    
Maximum Humidity 100    
Minimum Humidity 29    
Precipitation  
Precipitation 0.00 in - - ()
Sea Level Pressure  
Sea Level Pressure 30.03 in    
Wind  
Wind Speed 2 mph (WSW)    
Max Wind Speed 13 mph    
Max Gust Speed -    
Visibility 10 miles    
Events      
Averages and records for this station are not official NWS values.
T = Trace of Precipitation, MM = Missing Value Source: NWS Daily Summary

Daily Weather History Graph

Daily Weather History Graph

Search for Another Location

Airport:

Trip Planner

Search our weather history database for the weather conditions in past years. The results will help you decide how hot, cold, wet, or windy it might be!

Date:

Astronomy

Jan. 21, 2013 Rise Set
Actual Time 7:28 AM EST 5:41 PM EST
Civil Twilight 7:01 AM EST 6:08 PM EST
Nautical Twilight 6:30 AM EST 6:39 PM EST
Astronomical Twilight 6:00 AM EST 7:09 PM EST
Moon 1:21 PM EST (1/21) 2:54 AM EST (1/21)
Length of Visible Light 11h 07m
Length of Day
10h 13m
Waxing Gibbous, 75% of the Moon is Illuminated
Jan 21
Waxing Gibbous
Jan 26
Full
Feb 3
Last Quarter
Feb 10
New
Feb 17
First Quarter

Hourly Weather History & Observations

Time (EST) Temp. Windchill Dew Point Humidity Pressure Visibility Wind Dir Wind Speed Gust Speed Precip Events Conditions
12:15 AM 35.6 °F - 35.6 °F 100% 30.09 in 10.0 mi Calm Calm - N/A   Clear
12:35 AM 35.6 °F - 35.6 °F 100% 30.09 in 10.0 mi Calm Calm - N/A   Clear
12:55 AM 33.8 °F - 33.8 °F 100% 30.08 in 10.0 mi Calm Calm - N/A   Clear
1:15 AM 33.8 °F - 33.8 °F 100% 30.08 in 10.0 mi Calm Calm - N/A   Clear
1:35 AM 32.0 °F - 32.0 °F 100% 30.08 in 10.0 mi Calm Calm - N/A   Clear
1:55 AM 32.0 °F - 32.0 °F 100% 30.07 in 10.0 mi Calm Calm - N/A   Clear
2:15 AM 32.0 °F - 32.0 °F 100% 30.07 in 10.0 mi Calm Calm - N/A   Clear
2:35 AM 32.0 °F - 32.0 °F 100% 30.07 in 10.0 mi Calm Calm - N/A   Clear
2:55 AM 32.0 °F - 32.0 °F 100% 30.07 in 10.0 mi Calm Calm - N/A   Clear
3:15 AM 32.0 °F - 32.0 °F 100% 30.07 in 10.0 mi Calm Calm - N/A   Clear
3:35 AM 30.2 °F - 30.2 °F 100% 30.07 in 10.0 mi Calm Calm - N/A   Clear
3:55 AM 30.2 °F - 30.2 °F 100% 30.07 in 10.0 mi Calm Calm - N/A   Clear
4:15 AM 30.2 °F - 30.2 °F 100% 30.07 in 10.0 mi Calm Calm - N/A   Clear
4:35 AM 28.4 °F - 28.4 °F 100% 30.07 in 10.0 mi Calm Calm - N/A   Clear
4:55 AM 28.4 °F - 28.4 °F 100% 30.07 in 10.0 mi Calm Calm - N/A   Clear
5:15 AM 28.4 °F - 28.4 °F 100% 30.06 in 10.0 mi Calm Calm - N/A   Clear
5:35 AM 28.4 °F - 28.4 °F 100% 30.06 in 10.0 mi Calm Calm - N/A   Clear
5:55 AM 28.4 °F - 28.4 °F 100% 30.06 in 10.0 mi Calm Calm - N/A   Clear
6:15 AM 28.4 °F - 28.4 °F 100% 30.06 in 10.0 mi Calm Calm - N/A   Clear
6:35 AM 28.4 °F - 28.4 °F 100% 30.06 in 10.0 mi Calm Calm - N/A   Clear
6:55 AM 28.4 °F - 28.4 °F 100% 30.07 in 10.0 mi Calm Calm - N/A   Clear
7:15 AM 28.4 °F - 28.4 °F 100% 30.07 in 10.0 mi Calm Calm - N/A   Clear
7:35 AM 28.4 °F - 28.4 °F 100% 30.07 in 10.0 mi Calm Calm - N/A   Clear
7:55 AM 28.4 °F - 28.4 °F 100% 30.08 in 10.0 mi Calm Calm - N/A   Clear
8:15 AM 28.4 °F - 28.4 °F 100% 30.08 in 10.0 mi Calm Calm - N/A   Clear
8:35 AM 28.4 °F - 28.4 °F 100% 30.09 in 10.0 mi Calm Calm - N/A   Clear
8:55 AM 32.0 °F - 32.0 °F 100% 30.10 in 10.0 mi Calm Calm - N/A   Clear
9:15 AM 32.0 °F - 32.0 °F 100% 30.09 in 10.0 mi Calm Calm - N/A   Clear
9:35 AM 39.2 °F - 39.2 °F 100% 30.10 in 10.0 mi Calm Calm - N/A   Clear
9:55 AM 42.8 °F - 39.2 °F 87% 30.09 in 10.0 mi Calm Calm - N/A   Clear
10:15 AM 46.4 °F - 33.8 °F 62% 30.08 in 10.0 mi Calm Calm - N/A   Clear
10:35 AM 50.0 °F - 32.0 °F 50% 30.08 in 10.0 mi SE 3.5 mph - N/A   Clear
10:55 AM 53.6 °F - 32.0 °F 44% 30.07 in 10.0 mi Calm Calm - N/A   Clear
11:15 AM 55.4 °F - 32.0 °F 41% 30.06 in 10.0 mi Calm Calm - N/A   Clear
11:35 AM 57.2 °F - 28.4 °F 33% 30.05 in 10.0 mi Calm Calm - N/A   Clear
11:55 AM 57.2 °F - 32.0 °F 38% 30.03 in 10.0 mi SW 4.6 mph - N/A   Clear
12:15 PM 57.2 °F - 28.4 °F 33% 30.02 in 10.0 mi SSW 5.8 mph - N/A   Clear
12:35 PM 57.2 °F - 28.4 °F 33% 30.01 in 10.0 mi WSW 6.9 mph - N/A   Clear
12:55 PM 57.2 °F - 28.4 °F 33% 30.00 in 10.0 mi WSW 4.6 mph - N/A   Clear
1:15 PM 57.2 °F - 30.2 °F 36% 29.99 in 10.0 mi SSW 3.5 mph - N/A   Clear
1:35 PM 59.0 °F - 28.4 °F 31% 29.98 in 10.0 mi West 8.1 mph - N/A   Clear
1:55 PM 59.0 °F - 28.4 °F 31% 29.97 in 10.0 mi WSW 5.8 mph - N/A   Clear
2:15 PM 59.0 °F - 28.4 °F 31% 29.96 in 10.0 mi SW 6.9 mph - N/A   Clear
2:35 PM 59.0 °F - 28.4 °F 31% 29.95 in 10.0 mi SW 5.8 mph - N/A   Clear
2:55 PM 59.0 °F - 26.6 °F 29% 29.95 in 10.0 mi SW 6.9 mph - N/A   Clear
3:15 PM 59.0 °F - 26.6 °F 29% 29.95 in 10.0 mi WSW 10.4 mph - N/A   Clear
3:35 PM 60.8 °F - 28.4 °F 29% 29.95 in 10.0 mi WSW 12.7 mph - N/A   Clear
3:55 PM 59.0 °F - 28.4 °F 31% 29.95 in 10.0 mi WSW 8.1 mph - N/A   Clear
4:15 PM 59.0 °F - 28.4 °F 31% 29.95 in 10.0 mi SW 8.1 mph - N/A   Clear
4:35 PM 59.0 °F - 28.4 °F 31% 29.95 in 10.0 mi WSW 6.9 mph - N/A   Clear
4:55 PM 57.2 °F - 28.4 °F 33% 29.95 in 10.0 mi SW 4.6 mph - N/A   Clear
5:15 PM 57.2 °F - 30.2 °F 36% 29.94 in 10.0 mi Calm Calm - N/A   Clear
5:35 PM 53.6 °F - 32.0 °F 44% 29.94 in 10.0 mi SSW 3.5 mph - N/A   Clear
5:55 PM 53.6 °F - 32.0 °F 44% 29.94 in 10.0 mi SSW 3.5 mph - N/A   Clear
6:15 PM 53.6 °F - 30.2 °F 41% 29.95 in 10.0 mi SW 4.6 mph - N/A   Clear
6:35 PM 51.8 °F - 30.2 °F 44% 29.95 in 10.0 mi SSW 3.5 mph - N/A   Clear
6:55 PM 51.8 °F - 30.2 °F 44% 29.95 in 10.0 mi SW 3.5 mph - N/A   Clear
7:15 PM 50.0 °F - 30.2 °F 47% 29.96 in 10.0 mi SW 5.8 mph - N/A   Clear
7:55 PM 50.0 °F - 32.0 °F 50% 29.97 in 10.0 mi WSW 6.9 mph - N/A   Clear
8:15 PM 48.2 °F - 32.0 °F 54% 29.98 in 10.0 mi West 5.8 mph - N/A   Clear
8:35 PM 46.4 °F 45.2 °F 28.4 °F 50% 29.99 in 10.0 mi West 3.5 mph - N/A   Clear
8:55 PM 48.2 °F - 24.8 °F 40% 30.00 in 10.0 mi WNW 5.8 mph - N/A   Clear
9:15 PM 48.2 °F - 23.0 °F 37% 30.01 in 10.0 mi WNW 9.2 mph - N/A   Clear
9:35 PM 46.4 °F 42.4 °F 17.6 °F 32% 30.01 in 10.0 mi West 8.1 mph - N/A   Clear
9:55 PM 44.6 °F 40.7 °F 17.6 °F 34% 30.01 in 10.0 mi West 6.9 mph - N/A   Clear
10:15 PM 44.6 °F 41.4 °F 17.6 °F 34% 30.02 in 10.0 mi WSW 5.8 mph - N/A   Clear
10:35 PM 42.8 °F 41.1 °F 17.6 °F 36% 30.02 in 10.0 mi WSW 3.5 mph - N/A   Clear
10:55 PM 41.0 °F 39.0 °F 21.2 °F 45% 30.03 in 10.0 mi WSW 3.5 mph - N/A   Clear
11:15 PM 39.2 °F - 19.4 °F 45% 30.02 in 10.0 mi Calm Calm - N/A   Clear
11:35 PM 37.4 °F - 21.2 °F 52% 30.03 in 10.0 mi Calm Calm - N/A   Clear